User: anonymous   Login
Location: Theydon Bois
(51.6750°N, 0.1050°E)
Time: 21:53:43
(UTC+01:00)
Language:

Cosmos 2123 Rocket - Orbit

View from above orbital plane
View from above orbital plane
View from above satellite
View from above satellite

Ground track
Ground track

The orbit data is extracted from the following two-line orbital elements,

1 21090U 91007B   17290.56729611  .00000111  00000-0  97930-4 0  9990
2 21090  82.9205 147.4741 0021782  53.5110 306.8049 13.76343448340823
Epoch (UTC): 17 October 2017 13:36:54
Eccentricity: 0.0021782
inclination: 82.9205°
perigee height: 961 km
apogee height: 993 km
right ascension of ascending node: 147.4741°
argument of perigee: 53.5110°
revolutions per day: 13.76343448
mean anomaly at epoch: 306.8049°
orbit number at epoch: 34082

The dashed part of the orbit path shows where the satellite is in the earth's shadow,  

DLR